Regional Weather Roundup
Issued by NWS

Home | Current Version | Previous Version | Text Only | Print | Product List | Glossary On
Versions: 1 2 3 4 5 6 7 8 9 10 11 12 13 14 15 16 17 18 19 20 21 22 23 24 25 26 27
000
ASPQ40 PGUM 230612
RWRPQ
WEATHER ROUNDUP FOR THE MARIANAS AND MICRONESIA
NATIONAL WEATHER SERVICE TIYAN GU
400 PM CHST WED AUG 23 2017

GUZ001>004-230700-
MARIANA ISLANDS-

CITY           SKY/WX    TMP DP  RH WIND       PRES   REMARKS
GUAM AIRPORT   MOSUNNY   88  79  74 E10       29.83F HX 102
ANDERSEN AFB   PTSUNNY   86  77  74 S12       29.88F HX  97
ROTA AIRPORT   MOSUNNY   88  77  70 E10       29.83F HX 100
TINIAN AP      PTSUNNY   88  77  70 E9        29.80F HX 100
SAIPAN AP      MOSUNNY   91  79  66 E9        29.82S HX 107

$$

PMZ161-230700-
REPUBLIC OF PALAU-

CITY           SKY/WX    TMP DP  RH WIND       PRES   REMARKS
KOROR AP       NOT AVBL
KOROR WSO      MOSUNNY   88  77  70 E6        29.78S HX 100

$$

PMZ171>174-230700-
FEDERATED STATES OF MICRONESIA-

CITY           SKY/WX    TMP DP  RH WIND       PRES   REMARKS
YAP AIRPORT    PTSUNNY   86  77  74 NW8       29.77F HX  97
CHUUK AP       MOSUNNY   88  81  79 VRB6      29.76F HX 105
POHNPEI AP     NOT AVBL
POHNPEI WSO    PTSUNNY   86  77  74 N3        29.80F HX  97
KOSRAE AP      NOT AVBL

$$

PMZ181-230700-
REPUBLIC OF THE MARSHALL ISLANDS-

CITY           SKY/WX    TMP DP  RH WIND       PRES   REMARKS
KWAJALEIN AP   MOSUNNY   84  73  70 S8        29.81R HX  91
MAJURO AP      PTSUNNY   82  73  74 SE5       29.82S
MAJURO WSO     PTSUNNY   81  73  78 CALM      29.81R

$$





USA.gov is the U.S. government's official web portal to all federal, state and local government web resources and services.